| time (UTC) | temp C | wind direction | speed KPH | gust KPH | rain 1hr cm | rain 24hr cm | rain mn cm | humidity % | barometer mb |
| 20260504044531 | 15 | 198 | 3.2 | 6.4 | 0.00 | 0.00 | 0.00 | 58 | 1011.7 |
| 20260504043032 | 15 | 154 | 4.8 | 8.0 | 0.00 | 0.00 | 0.00 | 58 | 1011.6 |
| 20260504041531 | 16 | 135 | 4.8 | 6.4 | 0.00 | 0.00 | 0.00 | 58 | 1011.4 |
| 20260504040039 | 16 | 105 | 4.8 | 9.7 | 0.00 | 0.00 | 0.00 | 57 | 1011.2 |
| 20260504034531 | 17 | 209 | 0.0 | 4.8 | 0.00 | 0.00 | 0.00 | 53 | 1011.0 |
| 20260504033103 | 18 | 190 | 1.6 | 6.4 | 0.00 | 0.00 | 0.00 | 50 | 1010.8 |
| 20260504031532 | 20 | 157 | 4.8 | 9.7 | 0.00 | 0.00 | 0.00 | 48 | 1010.6 |
| 20260504030033 | 21 | 211 | 1.6 | 6.4 | 0.00 | 0.00 | 0.00 | 46 | 1010.5 |
| 20260504024530 | 23 | 247 | 3.2 | 6.4 | 0.00 | 0.00 | 0.00 | 40 | 1010.4 |
| 20260504023147 | 25 | 278 | 1.6 | 6.4 | 0.00 | 0.00 | 0.00 | 35 | 1010.4 |
| 20260504021647 | 26 | 337 | 0.0 | 3.2 | 0.00 | 0.00 | 0.00 | 31 | 1010.5 |
| 20260504020107 | 27 | 349 | 1.6 | 6.4 | 0.00 | 0.00 | 0.00 | 28 | 1010.7 |
| 20260504014532 | 27 | 333 | 3.2 | 9.7 | 0.00 | 0.00 | 0.00 | 28 | 1010.8 |
| 20260504013028 | 28 | 329 | 3.2 | 8.0 | 0.00 | 0.00 | 0.00 | 28 | 1010.9 |
| 20260504011538 | 29 | 323 | 3.2 | 8.0 | 0.00 | 0.00 | 0.00 | 25 | 1011.2 |
| 20260504004526 | 29 | 346 | 3.2 | 8.0 | 0.00 | 0.00 | 0.00 | 25 | 1011.3 |
| 20260504003032 | 29 | 17 | 4.8 | 12.9 | 0.00 | 0.00 | 0.00 | 25 | 1011.4 |
| 20260504000030 | 30 | 21 | 4.8 | 16.1 | 0.00 | 0.00 | 0.00 | 26 | 1011.6 |
| 20260503234529 | 30 | 19 | 4.8 | 14.5 | 0.00 | 0.00 | 0.00 | 26 | 1011.7 |
| 20260503233033 | 30 | 10 | 4.8 | 16.1 | 0.00 | 0.00 | 0.00 | 25 | 1011.9 |
| 20260503230032 | 29 | 56 | 6.4 | 17.7 | 0.00 | 0.00 | 0.00 | 26 | 1012.3 |
| 20260503224530 | 29 | 62 | 8.0 | 17.7 | 0.00 | 0.00 | 0.00 | 26 | 1012.6 |
| 20260503223033 | 29 | 34 | 8.0 | 17.7 | 0.00 | 0.00 | 0.00 | 28 | 1012.8 |
| 20260503221528 | 28 | 26 | 8.0 | 17.7 | 0.00 | 0.00 | 0.00 | 28 | 1013.0 |
| 20260503220107 | 28 | 27 | 8.0 | 22.5 | 0.00 | 0.00 | 0.00 | 28 | 1013.2 |
| 20260503214531 | 28 | 40 | 8.0 | 19.3 | 0.00 | 0.00 | 0.00 | 29 | 1013.4 |
| 20260503213029 | 27 | 42 | 9.7 | 24.1 | 0.00 | 0.00 | 0.00 | 29 | 1013.5 |
| 20260503211529 | 27 | 30 | 11.3 | 22.5 | 0.00 | 0.00 | 0.00 | 29 | 1013.7 |
| 20260503210031 | 27 | 52 | 8.0 | 19.3 | 0.00 | 0.00 | 0.00 | 29 | 1014.0 |
| 20260503203031 | 27 | 92 | 8.0 | 19.3 | 0.00 | 0.00 | 0.00 | 28 | 1014.3 |
| 20260503201608 | 27 | 76 | 8.0 | 19.3 | 0.00 | 0.00 | 0.00 | 28 | 1014.5 |
| 20260503200033 | 28 | 66 | 8.0 | 22.5 | 0.00 | 0.00 | 0.00 | 28 | 1014.6 |
| 20260503194530 | 28 | 81 | 8.0 | 19.3 | 0.00 | 0.00 | 0.00 | 28 | 1014.8 |
| 20260503193030 | 28 | 85 | 11.3 | 27.4 | 0.00 | 0.00 | 0.00 | 27 | 1014.9 |
| 20260503191532 | 29 | 97 | 6.4 | 22.5 | 0.00 | 0.00 | 0.00 | 28 | 1015.0 |
| 20260503190029 | 29 | 103 | 6.4 | 16.1 | 0.00 | 0.00 | 0.00 | 29 | 1015.0 |
| 20260503184529 | 28 | 46 | 3.2 | 14.5 | 0.00 | 0.00 | 0.00 | 33 | 1015.2 |
| 20260503183028 | 27 | 359 | 6.4 | 14.5 | 0.00 | 0.00 | 0.00 | 35 | 1015.3 |
| 20260503181530 | 27 | 5 | 3.2 | 11.3 | 0.00 | 0.00 | 0.00 | 36 | 1015.4 |
| 20260503180030 | 27 | 333 | 3.2 | 8.0 | 0.00 | 0.00 | 0.00 | 37 | 1015.6 |
| 20260503174531 | 27 | 356 | 0.0 | 4.8 | 0.00 | 0.00 | 0.00 | 37 | 1015.7 |
| 20260503171529 | 26 | 25 | 0.0 | 6.4 | 0.00 | 0.00 | 0.00 | 39 | 1015.9 |
| 20260503071531 | 10 | 202 | 3.2 | 6.4 | 0.00 | 0.00 | 0.00 | 80 | 1016.3 |
| 20260503070107 | 11 | 144 | 1.6 | 4.8 | 0.00 | 0.00 | 0.00 | 77 | 1016.3 |
| 20260503054540 | 11 | 220 | 0.0 | 4.8 | 0.00 | 0.00 | 0.00 | 81 | 1016.0 |
| 20260503051531 | 12 | 145 | 1.6 | 4.8 | 0.00 | 0.00 | 0.00 | 77 | 1016.0 |